Dewpoint
70 73 76 75 75 75 74 74 74 74 74 74 73 73 73 73 73 73 73 72 73 73 73 73 73 73 73 74 74 75 75 75 75 74 73 74 74 74 75 75 74 72 75
70 73 77 77 76 76 75 75 74 74 74 74 73 73 73 73 72 74 73 73 73 73 73 73 73 72 73 73 74 75 75 75 75 74 74 73 73 73 74 75 74 73 74
70 73 74 76 76 75 76 75 75 74 74 74 74 73 73 73 73 73 73 73 73 73 73 73 73 73 73 73 74 74 74 74 74 73 72 66 71 72 73 74 73 73 73
71 72 73 76 76 75 75 76 76 75 75 74 74 73 73 73 73 73 73 73 73 73 73 72 73 73 73 73 74 74 74 74 73 72 67 66 68 72 73 74 73 74 74
69 71 73 77 77 75 75 75 75 75 75 74 74 74 74 74 74 73 74 73 73 73 72 72 73 74 73 73 73 73 74 74 71 66 65 65 66 71 73 74 74 75 73
69 72 76 76 75 75 75 75 74 74 74 74 74 74 75 74 74 74 74 74 73 73 73 73 73 74 73 73 73 73 73 73 70 68 68 68 68 71 72 73 74 73 74
71 73 74 77 77 75 74 75 75 74 74 74 75 74 74 75 75 74 74 74 74 73 73 73 73 73 73 72 72 73 73 71 70 69 70 67 69 74 73 74 74 74 73
71 72 73 76 76 75 75 74 73 75 75 75 74 74 74 74 74 74 74 74 74 74 73 73 73 73 73 73 72 72 72 72 71 69 68 64 70 75 74 74 74 73 72
70 71 72 72 73 75 75 74 72 73 74 75 75 75 75 74 73 73 73 73 72 74 73 74 73 73 73 73 73 73 73 73 70 70 69 70 74 74 73 74 73 72 71
68 69 70 71 72 75 73 73 73 72 73 74 74 74 74 73 74 74 75 75 74 74 73 72 72 73 74 73 73 73 73 73 72 65 67 72 73 75 75 74 73 73 72
66 67 67 68 69 73 73 73 74 74 75 73 73 74 75 71 71 71 73 73 72 72 73 73 73 73 73 74 73 73 73 73 71 71 71 74 73 75 74 75 74 73 72
62 64 65 66 67 71 72 74 74 73 74 73 74 73 73 71 73 72 74 74 73 73 73 73 73 73 73 72 72 73 72 71 70 69 71 73 73 74 73 75 75 74 73
60 62 64 67 67 69 72 73 73 73 73 72 72 73 73 71 69 70 71 72 70 71 69 71 71 73 73 71 72 73 70 69 65 69 70 72 72 72 73 73 75 75 74
57 62 65 64 67 68 70 70 73 73 71 72 72 72 71 67 70 68 67 70 70 68 69 69 69 70 72 72 71 70 68 67 64 68 71 73 73 74 73 73 74 75 74
57 59 62 66 67 69 69 71 69 71 71 71 71 72 71 70 67 66 69 70 69 68 68 69 68 69 71 71 70 70 69 67 67 71 70 73 74 73 72 72 72 74 74
56 57 62 65 68 68 69 71 71 70 69 70 71 71 70 69 67 67 71 70 69 69 69 68 67 67 66 68 68 70 71 70 70 71 72 73 73 73 71 71 72 72 73
56 58 64 67 68 68 70 72 71 70 68 70 71 71 70 69 69 72 71 70 70 71 71 71 70 69 70 68 68 68 71 71 71 70 71 71 72 73 71 71 73 71 71
57 60 66 66 68 69 70 72 72 72 69 69 69 71 71 70 68 71 70 70 70 71 71 71 71 70 70 70 69 69 70 72 71 71 71 71 71 70 72 73 73 73 73
60 62 61 63 68 69 70 71 71 71 71 70 71 71 72 72 71 71 71 71 71 72 72 72 72 70 69 69 69 71 71 71 71 71 71 71 71 71 70 72 74 74 72
62 62 63 63 67 69 72 72 72 71 71 71 72 70 73 73 73 73 72 71 71 72 72 72 70 71 70 69 71 71 70 71 71 71 71 72 71 71 70 70 71 72 72
62 64 65 65 71 70 72 71 70 70 71 71 71 72 75 73 74 73 72 71 71 71 71 72 72 71 71 71 69 68 69 70 70 70 70 71 71 71 70 71 71 72 72
62 63 66 68 71 71 72 71 71 72 73 74 73 74 74 74 73 72 71 71 72 71 72 71 71 71 70 71 68 67 64 66 69 70 70 71 70 71 70 71 71 71 71
61 64 66 69 72 72 72 73 73 73 73 72 72 72 72 73 73 72 73 72 72 72 71 71 71 71 69 70 69 67 63 62 64 67 68 69 70 70 70 71 71 71 71
60 66 68 71 74 73 73 73 72 71 70 71 70 73 73 73 73 71 73 72 72 72 72 72 72 71 70 68 70 70 69 67 63 61 67 67 68 68 68 70 71 71 70
61 63 69 70 74 72 74 72 73 72 72 73 72 71 70 71 71 71 71 71 70 72 72 72 71 70 70 69 68 68 68 68 67 64 62 65 67 68 68 70 70 71 71
61 64 68 71 71 73 74 75 73 73 71 70 70 68 67 70 70 71 71 71 71 72 72 71 71 70 70 70 70 69 67 66 66 65 64 65 64 65 67 68 68 70 71
Lifted_Index
-3 -3 -4 -4 -4 -3 -3 -3 -3 -3 -2 -2 -2 -2 -2 -2 -2 -2 -2 -2 -2 -3 -3 -3 -3 -4 -4 -4 -4 -5 -5 -5 -5 -5 -5 -5 -5 -4 -5 -5 -5 -5 -5
-3 -4 -4 -4 -4 -4 -3 -3 -3 -3 -3 -3 -2 -2 -2 -2 -2 -2 -2 -2 -3 -3 -3 -3 -3 -3 -4 -4 -4 -5 -5 -5 -5 -5 -5 -5 -5 -5 -5 -5 -5 -5 -5
-3 -4 -5 -5 -4 -4 -4 -4 -3 -3 -3 -3 -3 -2 -2 -2 -2 -2 -2 -3 -3 -3 -3 -3 -3 -3 -4 -4 -4 -5 -5 -5 -5 -5 -4 -4 -4 -5 -5 -5 -5 -5 -5
-3 -4 -4 -5 -5 -4 -4 -4 -4 -4 -3 -3 -3 -3 -3 -3 -3 -3 -3 -3 -3 -3 -3 -3 -3 -4 -4 -4 -4 -5 -5 -5 -4 -3 -2 -2 -4 -5 -5 -5 -5 -5 -5
-4 -4 -5 -5 -5 -4 -4 -4 -4 -4 -4 -3 -3 -3 -3 -3 -3 -3 -3 -3 -3 -3 -3 -3 -4 -4 -4 -4 -4 -5 -5 -5 -3 -2 -0 -1 -3 -4 -5 -6 -6 -6 -6
-4 -5 -5 -5 -5 -5 -4 -4 -4 -4 -4 -4 -4 -4 -4 -4 -3 -3 -3 -3 -3 -3 -3 -3 -4 -4 -5 -5 -5 -5 -5 -4 -3 -1 -0 -1 -3 -4 -5 -6 -6 -6 -6
-5 -5 -5 -6 -5 -5 -5 -4 -4 -4 -4 -4 -4 -4 -4 -4 -4 -4 -4 -3 -3 -3 -3 -3 -4 -4 -4 -4 -4 -5 -4 -4 -3 -1 -0 -1 -3 -5 -6 -6 -6 -6 -5
-5 -5 -5 -5 -5 -5 -5 -4 -4 -4 -4 -4 -4 -4 -4 -4 -4 -3 -3 -3 -3 -3 -3 -3 -4 -4 -4 -4 -4 -4 -4 -4 -3 -2 -0 -1 -3 -5 -6 -6 -6 -5 -5
-4 -4 -5 -5 -5 -5 -5 -4 -3 -4 -4 -4 -4 -4 -4 -3 -3 -3 -3 -3 -3 -3 -3 -3 -4 -4 -4 -4 -4 -4 -4 -4 -3 -2 -1 -2 -3 -5 -6 -6 -6 -5 -5
-3 -3 -3 -4 -5 -5 -5 -4 -4 -4 -4 -4 -4 -4 -3 -3 -3 -3 -3 -3 -3 -3 -3 -3 -3 -4 -4 -4 -4 -4 -4 -4 -3 -2 -2 -3 -4 -5 -5 -6 -6 -5 -5
-2 -2 -3 -3 -4 -5 -5 -5 -4 -4 -4 -4 -4 -4 -3 -3 -2 -2 -2 -2 -2 -3 -3 -3 -3 -3 -3 -3 -3 -3 -4 -4 -3 -3 -3 -3 -4 -4 -5 -6 -6 -6 -5
-1 -2 -2 -2 -3 -4 -4 -5 -4 -4 -4 -4 -4 -4 -3 -3 -2 -2 -2 -2 -2 -2 -2 -3 -3 -3 -3 -3 -3 -3 -3 -3 -2 -2 -2 -3 -3 -4 -5 -6 -6 -6 -6
-1 -1 -2 -2 -3 -3 -4 -4 -4 -4 -3 -3 -3 -4 -3 -3 -2 -2 -2 -2 -2 -2 -2 -2 -2 -2 -3 -3 -2 -2 -2 -1 -0 -1 -2 -2 -2 -3 -4 -5 -6 -7 -6
-0 -1 -2 -2 -2 -3 -4 -4 -3 -3 -2 -2 -3 -3 -3 -2 -1 -1 -1 -1 -1 -1 -1 -1 -1 -2 -2 -2 -2 -2 -1 -0 0 -1 -2 -2 -3 -3 -3 -4 -5 -6 -6
0 -0 -1 -2 -3 -3 -4 -4 -3 -3 -2 -2 -3 -3 -3 -2 -1 -1 -1 -1 -1 -1 -1 -1 -1 -1 -2 -2 -2 -1 -1 -1 -1 -1 -2 -3 -3 -3 -3 -3 -4 -5 -5
0 -0 -1 -2 -3 -4 -4 -4 -4 -3 -3 -3 -3 -3 -3 -2 -1 -1 -1 -1 -1 -1 -2 -1 -1 -1 -1 -2 -2 -2 -2 -2 -2 -2 -2 -2 -2 -2 -2 -2 -3 -3 -3
0 -0 -1 -2 -3 -4 -4 -5 -4 -4 -3 -3 -3 -3 -3 -2 -2 -2 -2 -1 -1 -1 -2 -2 -2 -2 -2 -2 -2 -2 -2 -2 -2 -2 -2 -2 -2 -2 -2 -2 -2 -2 -2
0 -0 -2 -3 -3 -3 -4 -5 -5 -4 -4 -3 -3 -3 -3 -2 -2 -2 -2 -2 -1 -1 -2 -2 -2 -2 -2 -2 -2 -2 -2 -2 -2 -2 -1 -1 -1 -2 -2 -2 -2 -2 -2
-0 -1 -1 -2 -3 -3 -4 -4 -4 -4 -4 -4 -4 -3 -3 -3 -3 -2 -2 -2 -2 -2 -2 -2 -2 -2 -2 -2 -2 -2 -2 -2 -2 -2 -2 -1 -1 -1 -2 -2 -2 -2 -2
-1 -1 -1 -2 -3 -4 -4 -4 -4 -4 -4 -4 -4 -4 -4 -4 -4 -3 -3 -3 -3 -3 -3 -3 -3 -3 -3 -2 -2 -2 -2 -2 -2 -2 -2 -2 -1 -1 -1 -1 -2 -2 -2
-2 -2 -2 -3 -4 -4 -5 -5 -4 -4 -5 -5 -5 -5 -5 -5 -4 -4 -3 -3 -3 -3 -4 -3 -3 -4 -3 -3 -3 -2 -2 -2 -2 -2 -2 -2 -2 -1 -1 -1 -1 -1 -2
-2 -2 -3 -4 -5 -5 -5 -5 -5 -5 -5 -5 -5 -5 -5 -5 -4 -4 -3 -3 -3 -4 -4 -4 -4 -4 -4 -3 -3 -3 -3 -3 -3 -3 -2 -2 -2 -2 -1 -1 -1 -1 -1
-2 -3 -4 -5 -6 -6 -6 -6 -6 -6 -6 -5 -5 -5 -5 -4 -4 -3 -2 -2 -3 -3 -4 -4 -4 -4 -4 -3 -3 -3 -3 -3 -3 -3 -2 -2 -2 -2 -2 -1 -1 -2 -1
-3 -3 -4 -6 -6 -7 -7 -7 -6 -6 -6 -5 -5 -4 -4 -4 -3 -2 -2 -2 -2 -3 -4 -4 -5 -4 -4 -3 -3 -3 -3 -3 -3 -2 -2 -2 -2 -2 -2 -2 -2 -2 -2
-3 -4 -5 -6 -7 -7 -7 -7 -7 -6 -6 -5 -5 -4 -3 -3 -2 -2 -2 -2 -3 -4 -4 -5 -4 -4 -4 -3 -3 -3 -3 -2 -2 -2 -2 -2 -2 -2 -2 -1 -1 -1 -1
-3 -4 -5 -6 -7 -7 -7 -7 -7 -7 -6 -5 -5 -4 -3 -2 -2 -2 -3 -3 -3 -4 -4 -4 -4 -4 -4 -3 -3 -3 -2 -2 -2 -2 -1 -1 -1 -1 -1 -1 -1 -1 -1